User: anonymous   Login
Location: Smithers
(54.7670°N, 127.1670°W)
Time: 07:00:20
(UTC-07:00)
Language:

ERBS - Orbit

View from above orbital plane
View from above orbital plane
View from above satellite
View from above satellite

Ground track
Ground track

The orbit data is extracted from the following two-line orbital elements,

1 15354U 84108B   14304.14596197  .00015009  00000-0  50946-3 0  6262
2 15354 057.0134 281.1253 0021972 089.5120 270.8447 15.30559238650428
Epoch (UTC): 31 October 2014 03:30:11
Eccentricity: 0.0021972
inclination: 57.0134°
perigee height: 459 km
apogee height: 489 km
right ascension of ascending node: 281.1253°
argument of perigee: 89.5120°
revolutions per day: 15.30559238
mean anomaly at epoch: 270.8447°
orbit number at epoch: 65042

The dashed part of the orbit path shows where the satellite is in the earth's shadow,  

DLR